Content
SEND FEEDBACK

Daily
Averages
Monthly
Summary
United States of America

CHICAGO, ILLINOIS


Home > North America > United States > Illinois
Elevation: 674 feet     Latitude: 41 59N     Longitude: 087 54W

WEATHER
 
SELECT A DAY
Number of Records: 195,054;   Date Range: 7/8/95 - 9/3/14
 
SHARE

PRINT THIS DATA

[ ← Previous Day ]
WEATHER ALMANAC - SEPTEMBER 16, 2013
[ Next Day → ]
[ °C ]   °F
Weather ElementAverageHighLow
Temperature57.3 °F63 °F (1:52 pm)50 °F (6:42 am)
Dewpoint47.6 °F55.9 °F (12:52 am)44.1 °F (6:52 am)
Humidity70.8 %86 % (1:52 am)53 % (3:52 pm)
Barometer30.33 in30.39 in (11:09 am)30.20 in (12:52 am)
Wind Speed8.5 mph15 mph (1:52 pm)
Wind Gust20.7 mph (4:52 pm)
Weather ElementAverage
Visibility10 mi
Wind DirectionESE (120 °)

Weather ElementTotal
Precipitation0.01 in
Heating Degree Days8.5 (Base 65)
Growing Degree Days6.5 (Base 50)
Averaged from 30 records on September 16, 2013
WEATHER CONDITIONS BREAKOUT
WIND DIRECTION BREAKOUT
WEATHER BY HOUR - SEPTEMBER 16, 2013
[ °C ]   °F
Local TimeTemperatureDewpointHumidityBarometerVisibilityWind DirectionWind SpeedGust SpeedPrecipitationEventsConditions
12:52 AM62.1 °F55.9 °F80 %30.20 in10.0 miNNE (30°)11.5 mphOvercast
1:52 AM60.1 °F55.9 °F86 %30.22 in9.0 miNNE (30°)9.2 mph0.01 inRainLight Rain
2:44 AM60.8 °F53.6 °F77 %30.23 in10.0 miNorth (10°)10.4 mph17.3 mph0.00 inOvercast
2:52 AM60.1 °F54.0 °F80 %30.23 in10.0 miNorth (10°)10.4 mph19.6 mph0.00 inOvercast
3:52 AM59.0 °F51.1 °F75 %30.25 in10.0 miNorth (10°)10.4 mph18.4 mphOvercast
4:52 AM55.0 °F50.0 °F83 %30.28 in10.0 miNorth (350°)10.4 mph19.6 mphOvercast
5:52 AM51.1 °F46.0 °F83 %30.30 in10.0 miNorth (350°)8.1 mphPartly Cloudy
6:42 AM50.0 °F44.6 °F82 %30.31 in10.0 miNNW (340°)9.2 mphMostly Cloudy
6:52 AM50.0 °F44.1 °F80 %30.32 in10.0 miNNW (330°)10.4 mphOvercast
7:52 AM51.1 °F44.1 °F77 %30.35 in10.0 miNorth (360°)11.5 mphOvercast
8:23 AM53.6 °F44.6 °F72 %30.35 in10.0 miNorth (350°)6.9 mphScattered Clouds
8:52 AM55.0 °F46.0 °F72 %30.36 in10.0 miNorth (360°)6.9 mphPartly Cloudy
9:52 AM59.0 °F48.0 °F67 %30.38 in10.0 miNorth (360°)9.2 mphMostly Cloudy
10:09 AM59.0 °F48.2 °F67 %30.38 in10.0 miNorth (360°)9.2 mphMostly Cloudy
10:52 AM60.1 °F48.0 °F64 %30.38 in10.0 miNorth (10°)10.4 mphOvercast
11:09 AM62.6 °F46.4 °F55 %30.39 in10.0 miENE (70°)11.5 mph18.4 mphOvercast
11:52 AM62.1 °F46.0 °F56 %30.38 in10.0 miNNE (20°)11.5 mph18.4 mphOvercast
12:52 PM62.1 °F46.0 °F56 %30.39 in10.0 miNNE (30°)10.4 mph19.6 mphMostly Cloudy
1:52 PM63.0 °F46.0 °F54 %30.38 in10.0 miNorth (10°)15.0 mphScattered Clouds
2:52 PM63.0 °F46.0 °F54 %30.37 in10.0 miNE (40°)10.4 mphPartly Cloudy
3:52 PM62.1 °F45.0 °F53 %30.36 in10.0 miNNE (20°)10.4 mph19.6 mphPartly Cloudy
4:52 PM61.0 °F46.0 °F58 %30.36 in10.0 miNE (40°)10.4 mph20.7 mphPartly Cloudy
5:52 PM60.1 °F46.0 °F60 %30.35 in10.0 miNE (40°)13.8 mph18.4 mphPartly Cloudy
6:21 PM59.0 °F46.4 °F63 %30.35 in10.0 miNNE (30°)8.1 mphMostly Cloudy
6:52 PM57.0 °F46.9 °F69 %30.35 in10.0 miNE (40°)9.2 mphScattered Clouds
7:52 PM55.0 °F46.0 °F72 %30.35 in10.0 miCalmClear
8:52 PM53.1 °F46.0 °F77 %30.35 in10.0 miCalm
9:52 PM52.0 °F46.0 °F80 %30.35 in10.0 miCalmPartly Cloudy
10:52 PM51.1 °F46.9 °F86 %30.35 in10.0 miCalmClear
11:52 PM51.1 °F46.9 °F86 %30.35 in10.0 miCalmClear
Hourly data recorded from KPWK, located miles away from Chicago, Illinois







STORIES FROM OUR PARTNERS